Southbury, CT

1:40 AM EST on February 23, 2017 (GMT -0500)
Waterbury-Oxford

Weather History for KOXC - September, 2014

Change the Weather History Date:

Wednesday, September 3, 2014

  Actual Average Record
Temperature  
Mean Temperature 70 °F -  
Max Temperature 78 °F 72 °F 87 °F (1999)
Min Temperature 60 °F 55 °F 48 °F (1999)
Cooling Degree Days 5    
Growing Degree Days 20 (Base 50)    
Moisture  
Dew Point 60 °F    
Average Humidity 70    
Maximum Humidity 83    
Minimum Humidity 44    
Precipitation  
Precipitation 0.00 in - - ()
Sea Level Pressure  
Sea Level Pressure 29.98 in    
Wind  
Wind Speed 7 mph (NW)    
Max Wind Speed 14 mph    
Max Gust Speed 21 mph    
Visibility 10 miles    
Events      
Averages and records for this station are not official NWS values.
T = Trace of Precipitation, MM = Missing Value Source: NWS Daily Summary

Daily Weather History Graph

Daily Weather History Graph

Search for Another Location

Airport or City:

Trip Planner

Search our weather history database for the weather conditions in past years. The results will help you decide how hot, cold, wet, or windy it might be!

Date:

Astronomy

Sep. 03, 2014 Rise Set
Actual Time 6:20 AM EDT 7:22 PM EDT
Civil Twilight 5:52 AM EDT 7:50 PM EDT
Nautical Twilight 5:18 AM EDT 8:24 PM EDT
Astronomical Twilight 4:43 AM EDT 8:59 PM EDT
Moon 3:04 PM EDT (9/3) 12:10 AM EDT (9/3)
Length of Visible Light 13h 58m
Length of Day
13h 01m
Waxing Gibbous, 63% of the Moon is Illuminated
Sep 3
Waxing Gibbous
Sep 8
Full
Sep 15
Last Quarter
Sep 24
New
Oct 1
First Quarter

Hourly Weather History & Observations

Time (EDT) Temp. Dew Point Humidity Pressure Visibility Wind Dir Wind Speed Gust Speed Precip Events Conditions
12:15 AM 75.2 °F 69.8 °F 83% 29.80 in 10.0 mi SW 5.8 mph - N/A   Partly Cloudy
12:35 AM 75.2 °F 69.8 °F 83% 29.81 in 10.0 mi SW 4.6 mph - N/A   Clear
12:55 AM 75.2 °F 68.0 °F 78% 29.81 in 10.0 mi West 6.9 mph - N/A   Clear
1:15 AM 75.2 °F 66.2 °F 73% 29.82 in 10.0 mi West 8.1 mph - N/A   Clear
1:35 AM 75.2 °F 66.2 °F 73% 29.83 in 10.0 mi West 9.2 mph 16.1 mph N/A   Mostly Cloudy
1:55 AM 75.2 °F 66.2 °F 73% 29.84 in 10.0 mi West 10.4 mph 17.3 mph N/A   Mostly Cloudy
2:15 AM 75.2 °F 64.4 °F 69% 29.84 in 10.0 mi WNW 8.1 mph - N/A   Overcast
2:35 AM 73.4 °F 64.4 °F 73% 29.85 in 10.0 mi NW 9.2 mph - N/A   Mostly Cloudy
2:55 AM 73.4 °F 62.6 °F 69% 29.86 in 10.0 mi NNW 11.5 mph 20.7 mph N/A   Scattered Clouds
3:15 AM 71.6 °F 62.6 °F 73% 29.86 in 10.0 mi NNW 13.8 mph 19.6 mph N/A   Scattered Clouds
3:35 AM 71.6 °F 60.8 °F 69% 29.86 in 10.0 mi NNW 11.5 mph - N/A   Clear
3:55 AM 69.8 °F 60.8 °F 73% 29.88 in 10.0 mi NNW 10.4 mph - N/A   Clear
4:15 AM 69.8 °F 60.8 °F 73% 29.89 in 10.0 mi NNW 8.1 mph - N/A   Partly Cloudy
4:35 AM 69.8 °F 60.8 °F 73% 29.89 in 10.0 mi NNW 9.2 mph - N/A   Partly Cloudy
4:55 AM 68.0 °F 59.0 °F 73% 29.90 in 10.0 mi NNW 10.4 mph 16.1 mph N/A   Clear
5:15 AM 66.2 °F 59.0 °F 78% 29.92 in 10.0 mi NNW 8.1 mph - N/A   Clear
5:35 AM 66.2 °F 57.2 °F 73% 29.92 in 10.0 mi NNW 9.2 mph - N/A   Clear
5:50 AM 66.2 °F 57.2 °F 73% 29.93 in 10.0 mi North 9.2 mph - N/A   Partly Cloudy
5:55 AM 66.2 °F 57.2 °F 73% 29.93 in 10.0 mi NNW 9.2 mph - N/A   Clear
6:50 AM 64.4 °F 57.2 °F 77% 29.96 in 10.0 mi Calm Calm - N/A   Partly Cloudy
7:50 AM 64.4 °F 57.2 °F 77% 29.99 in 10.0 mi Calm Calm - N/A   Partly Cloudy
8:50 AM 69.8 °F 57.2 °F 64% 30.01 in 10.0 mi NNW 8.1 mph - N/A   Partly Cloudy
9:55 AM 71.6 °F 57.2 °F 60% 30.02 in 10.0 mi North 11.5 mph 16.1 mph N/A   Partly Cloudy
10:50 AM 73.4 °F 57.2 °F 57% 30.03 in 10.0 mi NNW 11.5 mph 16.1 mph N/A   Partly Cloudy
12:50 PM 73.4 °F 55.4 °F 53% 30.05 in 10.0 mi NNW 8.1 mph 17.3 mph N/A   Partly Cloudy
1:50 PM 75.2 °F 59.0 °F 57% 30.05 in 10.0 mi NNW 9.2 mph - N/A   Partly Cloudy
2:52 PM 78.8 °F 57.2 °F 47% 30.06 in 10.0 mi NNW 10.4 mph - N/A   Scattered Clouds
3:52 PM 78.8 °F 55.4 °F 44% 30.06 in 10.0 mi North 12.7 mph - N/A   Scattered Clouds
5:52 PM 78.8 °F 57.2 °F 47% 30.08 in 10.0 mi Calm Calm - N/A   Scattered Clouds
6:52 PM 75.2 °F 59.0 °F 57% 30.09 in 10.0 mi Calm Calm - N/A   Partly Cloudy
7:52 PM 69.8 °F 60.8 °F 73% 30.10 in 10.0 mi Calm Calm - N/A   Partly Cloudy
8:52 PM 66.2 °F 57.2 °F 73% 30.12 in 10.0 mi Calm Calm - N/A   Partly Cloudy
9:15 PM 64.4 °F 57.2 °F 77% 30.13 in 10.0 mi North 3.5 mph - N/A   Clear
9:35 PM 64.4 °F 57.2 °F 77% 30.13 in 10.0 mi Calm Calm - N/A   Clear
9:55 PM 64.4 °F 57.2 °F 77% 30.13 in 10.0 mi Calm Calm - N/A   Clear
10:15 PM 62.6 °F 55.4 °F 77% 30.14 in 10.0 mi Calm Calm - N/A   Clear
10:35 PM 62.6 °F 55.4 °F 77% 30.14 in 10.0 mi Calm Calm - N/A   Clear
10:55 PM 62.6 °F 55.4 °F 77% 30.14 in 10.0 mi Calm Calm - N/A   Clear
11:15 PM 62.6 °F 55.4 °F 77% 30.14 in 10.0 mi Calm Calm - N/A   Clear
11:55 PM 60.8 °F 53.6 °F 77% 30.15 in 10.0 mi Calm Calm - N/A   Clear